QPF
0.07 0.07 0.07 0.06 0.04 0.04 0.03 0.03 0.03 0.05 0.09 0.08 0.06 0.07 0.12 0.17 0.16 0.18 0.18 0.18 0.18 0.15 0.11 0.08 0.07 0.06 0.07 0.08 0.08 0.08 0.08 0.07 0.07 0.06 0.05 0.05 0.05 0.04 0.03 0.03 0.04 0.04 0.04
0.09 0.11 0.08 0.04 0.04 0.04 0.05 0.06 0.05 0.05 0.06 0.07 0.06 0.06 0.07 0.09 0.09 0.15 0.15 0.12 0.12 0.11 0.09 0.07 0.07 0.07 0.07 0.08 0.09 0.08 0.08 0.08 0.08 0.07 0.05 0.05 0.05 0.05 0.04 0.04 0.05 0.05 0.04
0.08 0.09 0.08 0.06 0.05 0.05 0.07 0.07 0.07 0.06 0.07 0.06 0.06 0.06 0.07 0.06 0.06 0.07 0.09 0.09 0.08 0.08 0.09 0.08 0.07 0.07 0.08 0.09 0.09 0.08 0.09 0.09 0.10 0.09 0.07 0.06 0.05 0.05 0.05 0.06 0.07 0.06 0.06
0.07 0.07 0.07 0.06 0.06 0.06 0.06 0.07 0.06 0.06 0.06 0.05 0.04 0.04 0.04 0.04 0.04 0.04 0.04 0.04 0.05 0.06 0.09 0.09 0.09 0.08 0.11 0.12 0.12 0.11 0.11 0.12 0.12 0.09 0.06 0.06 0.05 0.05 0.06 0.08 0.08 0.08 0.07
0.03 0.04 0.04 0.04 0.04 0.04 0.04 0.04 0.04 0.04 0.05 0.04 0.03 0.03 0.03 0.03 0.04 0.02 0.03 0.03 0.04 0.06 0.07 0.08 0.08 0.08 0.09 0.09 0.10 0.09 0.09 0.10 0.11 0.08 0.07 0.06 0.06 0.06 0.08 0.10 0.10 0.08 0.09
0.02 0.03 0.02 0.02 0.02 0.03 0.03 0.04 0.03 0.04 0.03 0.03 0.03 0.03 0.04 0.04 0.03 0.02 0.02 0.02 0.02 0.05 0.06 0.06 0.05 0.06 0.09 0.09 0.08 0.08 0.09 0.11 0.11 0.09 0.08 0.07 0.06 0.06 0.08 0.11 0.09 0.09 0.11
0.02 0.02 0.03 0.03 0.02 0.02 0.03 0.05 0.03 0.03 0.04 0.03 0.03 0.03 0.03 0.03 0.02 0.02 0.02 0.02 0.03 0.03 0.05 0.05 0.06 0.06 0.09 0.10 0.07 0.07 0.10 0.12 0.10 0.10 0.09 0.08 0.07 0.08 0.08 0.10 0.11 0.13 0.12
0.02 0.02 0.03 0.04 0.03 0.03 0.03 0.03 0.03 0.03 0.02 0.02 0.02 0.03 0.02 0.02 0.02 0.01 0.01 0.02 0.02 0.02 0.03 0.04 0.05 0.05 0.05 0.05 0.05 0.07 0.09 0.07 0.06 0.08 0.09 0.08 0.09 0.10 0.11 0.12 0.12 0.12 0.11
0.01 0.02 0.03 0.03 0.03 0.04 0.04 0.04 0.04 0.03 0.02 0.02 0.01 0.01 0.02 0.03 0.02 0.01 0.01 0.01 0.02 0.02 0.03 0.03 0.03 0.04 0.03 0.03 0.04 0.07 0.07 0.05 0.05 0.06 0.08 0.08 0.08 0.08 0.10 0.12 0.14 0.14 0.14
0.02 0.03 0.03 0.04 0.04 0.04 0.04 0.04 0.04 0.04 0.03 0.03 0.03 0.02 0.02 0.03 0.03 0.02 0.02 0.02 0.02 0.02 0.03 0.02 0.03 0.02 0.03 0.02 0.03 0.06 0.04 0.03 0.03 0.05 0.06 0.08 0.09 0.09 0.10 0.12 0.14 0.15 0.15
0.02 0.03 0.05 0.04 0.04 0.03 0.02 0.03 0.03 0.04 0.02 0.02 0.03 0.04 0.04 0.04 0.04 0.02 0.01 0.02 0.01 0.01 0.01 0.02 0.03 0.03 0.03 0.03 0.04 0.04 0.03 0.03 0.03 0.04 0.05 0.07 0.09 0.11 0.12 0.12 0.12 0.12 0.13
0.02 0.03 0.05 0.08 0.07 0.05 0.04 0.03 0.03 0.03 0.02 0.02 0.02 0.03 0.03 0.02 0.03 0.03 0.02 0.01 0.01 0.01 0.01 0.02 0.04 0.06 0.05 0.04 0.04 0.04 0.03 0.03 0.03 0.04 0.04 0.05 0.06 0.08 0.08 0.08 0.08 0.08 0.08
0.03 0.03 0.04 0.04 0.06 0.07 0.06 0.03 0.02 0.02 0.02 0.02 0.02 0.02 0.03 0.02 0.02 0.02 0.02 0.01 0.01 0.02 0.02 0.03 0.05 0.07 0.06 0.05 0.04 0.03 0.02 0.02 0.03 0.03 0.03 0.03 0.05 0.06 0.07 0.07 0.06 0.05 0.07
0.05 0.07 0.07 0.05 0.04 0.03 0.03 0.02 0.02 0.02 0.02 0.01 0.01 0.02 0.02 0.02 0.02 0.02 0.02 0.02 0.01 0.02 0.03 0.04 0.05 0.05 0.05 0.03 0.02 0.02 0.02 0.02 0.02 0.02 0.02 0.03 0.04 0.05 0.05 0.04 0.04 0.04 0.04
0.03 0.05 0.07 0.08 0.05 0.03 0.02 0.01 0.01 0.02 0.01 0.01 0.01 0.02 0.02 0.02 0.02 0.02 0.03 0.03 0.02 0.02 0.04 0.05 0.04 0.03 0.04 0.04 0.03 0.02 0.01 0.02 0.01 0.01 0.02 0.03 0.03 0.03 0.03 0.03 0.03 0.04 0.04
0.01 0.01 0.02 0.04 0.04 0.04 0.02 0.01 0.01 0.01 0.01 0.01 0.02 0.02 0.02 0.02 0.02 0.03 0.03 0.03 0.04 0.03 0.03 0.03 0.03 0.02 0.03 0.03 0.02 0.01 0.02 0.02 0.01 0.01 0.01 0.02 0.02 0.03 0.03 0.03 0.04 0.04 0.04
0.01 0.01 0.01 0.01 0.01 0.01 0.01 0.01 0.01 0.01 0.01 0.02 0.02 0.02 0.02 0.02 0.03 0.03 0.02 0.03 0.04 0.04 0.03 0.03 0.02 0.02 0.02 0.02 0.02 0.01 0.01 0.01 0.01 0.01 0.01 0.01 0.02 0.03 0.03 0.04 0.03 0.03 0.03
0.01 0.01 0.01 0.01 0.01 0.01 0.00 0.00 0.01 0.01 0.01 0.02 0.02 0.02 0.02 0.02 0.02 0.02 0.02 0.02 0.03 0.03 0.04 0.03 0.02 0.03 0.03 0.02 0.02 0.01 0.01 0.01 0.01 0.01 0.01 0.01 0.01 0.02 0.02 0.03 0.02 0.02 0.01
0.01 0.01 0.01 0.01 0.01 0.00 0.00 0.01 0.01 0.01 0.01 0.01 0.01 0.01 0.02 0.02 0.02 0.01 0.01 0.01 0.01 0.02 0.04 0.04 0.03 0.02 0.03 0.02 0.02 0.02 0.02 0.01 0.01 0.01 0.02 0.02 0.02 0.02 0.02 0.02 0.02 0.01 0.01
0.00 0.00 0.00 0.00 0.00 0.00 0.00 0.01 0.01 0.01 0.01 0.01 0.01 0.01 0.02 0.02 0.01 0.01 0.01 0.01 0.01 0.02 0.03 0.04 0.04 0.03 0.02 0.02 0.02 0.02 0.03 0.02 0.02 0.01 0.01 0.02 0.03 0.02 0.02 0.01 0.01 0.01 0.01
0.00 0.00 0.00 0.00 0.00 0.00 0.00 0.01 0.02 0.01 0.01 0.01 0.01 0.01 0.01 0.01 0.01 0.01 0.01 0.01 0.01 0.01 0.02 0.03 0.04 0.03 0.02 0.02 0.02 0.02 0.03 0.03 0.02 0.01 0.01 0.01 0.01 0.01 0.01 0.01 0.01 0.01 0.01
0.01 0.00 0.01 0.01 0.01 0.01 0.01 0.01 0.02 0.02 0.01 0.01 0.01 0.01 0.01 0.01 0.01 0.01 0.01 0.01 0.01 0.01 0.01 0.02 0.03 0.02 0.03 0.03 0.02 0.02 0.03 0.04 0.03 0.02 0.01 0.01 0.01 0.01 0.01 0.01 0.01 0.01 0.01
0.01 0.01 0.01 0.01 0.02 0.02 0.01 0.01 0.02 0.01 0.01 0.01 0.01 0.01 0.01 0.01 0.01 0.01 0.01 0.01 0.01 0.01 0.02 0.02 0.02 0.02 0.02 0.02 0.03 0.02 0.03 0.04 0.04 0.03 0.02 0.02 0.01 0.01 0.01 0.01 0.01 0.01 0.01
0.01 0.02 0.02 0.02 0.01 0.01 0.01 0.01 0.02 0.01 0.02 0.01 0.01 0.01 0.01 0.01 0.01 0.01 0.01 0.01 0.01 0.01 0.01 0.02 0.01 0.02 0.02 0.02 0.02 0.03 0.04 0.05 0.06 0.05 0.03 0.02 0.02 0.01 0.01 0.00 0.01 0.01 0.01
0.02 0.02 0.02 0.01 0.01 0.01 0.01 0.01 0.01 0.01 0.01 0.01 0.01 0.01 0.02 0.01 0.02 0.02 0.01 0.01 0.01 0.01 0.01 0.03 0.03 0.03 0.03 0.03 0.02 0.03 0.03 0.04 0.04 0.04 0.03 0.03 0.02 0.01 0.01 0.00 0.01 0.01 0.01
0.01 0.01 0.01 0.01 0.01 0.01 0.01 0.00 0.00 0.00 0.00 0.01 0.01 0.01 0.02 0.02 0.02 0.03 0.02 0.02 0.02 0.03 0.03 0.03 0.03 0.02 0.03 0.02 0.03 0.04 0.05 0.04 0.04 0.04 0.03 0.02 0.02 0.02 0.01 0.00 0.00 0.00 0.01
MSLP
1017.16 1017.19 1017.18 1017.19 1017.23 1017.31 1017.44 1017.59 1017.73 1017.84 1017.89 1017.89 1017.83 1017.75 1017.66 1017.58 1017.55 1017.55 1017.58 1017.63 1017.68 1017.72 1017.76 1017.80 1017.86 1017.93 1018.02 1018.14 1018.28 1018.42 1018.55 1018.66 1018.75 1018.84 1018.91 1019.00 1019.09 1019.20 1019.31 1019.43 1019.54 1019.65 1019.77
1017.00 1017.03 1017.04 1017.08 1017.14 1017.25 1017.39 1017.54 1017.67 1017.78 1017.82 1017.81 1017.76 1017.67 1017.58 1017.50 1017.44 1017.41 1017.41 1017.42 1017.44 1017.47 1017.51 1017.56 1017.64 1017.73 1017.85 1017.98 1018.11 1018.24 1018.34 1018.43 1018.49 1018.55 1018.61 1018.68 1018.76 1018.87 1018.98 1019.09 1019.20 1019.31 1019.43
1016.81 1016.86 1016.92 1016.99 1017.10 1017.23 1017.38 1017.53 1017.66 1017.74 1017.78 1017.77 1017.72 1017.64 1017.56 1017.48 1017.41 1017.36 1017.32 1017.30 1017.28 1017.28 1017.31 1017.36 1017.43 1017.54 1017.67 1017.80 1017.93 1018.03 1018.11 1018.15 1018.18 1018.19 1018.22 1018.26 1018.33 1018.42 1018.52 1018.64 1018.76 1018.88 1019.03
1016.59 1016.69 1016.80 1016.94 1017.09 1017.25 1017.41 1017.55 1017.66 1017.73 1017.75 1017.74 1017.69 1017.64 1017.58 1017.51 1017.45 1017.39 1017.34 1017.28 1017.23 1017.19 1017.19 1017.22 1017.28 1017.38 1017.50 1017.62 1017.72 1017.79 1017.82 1017.81 1017.78 1017.74 1017.72 1017.72 1017.76 1017.84 1017.94 1018.07 1018.21 1018.37 1018.57
1016.35 1016.51 1016.69 1016.89 1017.09 1017.28 1017.45 1017.58 1017.67 1017.71 1017.72 1017.70 1017.68 1017.65 1017.63 1017.61 1017.58 1017.53 1017.47 1017.39 1017.31 1017.24 1017.20 1017.19 1017.22 1017.29 1017.38 1017.46 1017.52 1017.53 1017.49 1017.42 1017.31 1017.21 1017.12 1017.08 1017.09 1017.14 1017.25 1017.40 1017.58 1017.80 1018.06
1016.11 1016.33 1016.57 1016.83 1017.08 1017.30 1017.47 1017.59 1017.65 1017.67 1017.67 1017.66 1017.66 1017.68 1017.72 1017.76 1017.78 1017.77 1017.73 1017.65 1017.56 1017.45 1017.37 1017.31 1017.29 1017.31 1017.34 1017.36 1017.35 1017.29 1017.17 1017.01 1016.83 1016.64 1016.49 1016.39 1016.36 1016.40 1016.52 1016.69 1016.93 1017.21 1017.55
1015.86 1016.12 1016.42 1016.74 1017.03 1017.27 1017.45 1017.55 1017.59 1017.59 1017.59 1017.60 1017.64 1017.72 1017.83 1017.95 1018.05 1018.11 1018.11 1018.05 1017.95 1017.83 1017.71 1017.60 1017.52 1017.47 1017.43 1017.37 1017.28 1017.13 1016.92 1016.67 1016.39 1016.12 1015.89 1015.73 1015.66 1015.69 1015.82 1016.03 1016.33 1016.68 1017.11
1015.58 1015.88 1016.23 1016.58 1016.90 1017.17 1017.35 1017.45 1017.48 1017.48 1017.48 1017.51 1017.60 1017.75 1017.95 1018.16 1018.35 1018.49 1018.55 1018.54 1018.46 1018.33 1018.19 1018.04 1017.91 1017.79 1017.67 1017.53 1017.35 1017.11 1016.80 1016.45 1016.08 1015.73 1015.43 1015.22 1015.11 1015.13 1015.27 1015.52 1015.87 1016.30 1016.80
1015.29 1015.60 1015.97 1016.35 1016.70 1016.98 1017.18 1017.28 1017.32 1017.32 1017.34 1017.40 1017.55 1017.77 1018.05 1018.35 1018.63 1018.86 1019.00 1019.04 1019.00 1018.89 1018.74 1018.57 1018.40 1018.23 1018.05 1017.84 1017.58 1017.25 1016.87 1016.43 1015.98 1015.56 1015.20 1014.94 1014.81 1014.82 1014.97 1015.26 1015.65 1016.14 1016.70
1014.98 1015.29 1015.66 1016.06 1016.43 1016.73 1016.94 1017.06 1017.11 1017.13 1017.17 1017.27 1017.46 1017.74 1018.09 1018.47 1018.83 1019.13 1019.34 1019.45 1019.46 1019.38 1019.25 1019.09 1018.91 1018.72 1018.51 1018.25 1017.94 1017.57 1017.13 1016.64 1016.14 1015.67 1015.27 1014.98 1014.83 1014.84 1015.00 1015.30 1015.72 1016.24 1016.84
1014.67 1014.96 1015.33 1015.74 1016.12 1016.44 1016.67 1016.81 1016.88 1016.92 1016.99 1017.12 1017.34 1017.66 1018.05 1018.48 1018.89 1019.25 1019.52 1019.69 1019.75 1019.73 1019.64 1019.51 1019.36 1019.18 1018.98 1018.72 1018.40 1018.02 1017.56 1017.06 1016.54 1016.06 1015.65 1015.35 1015.19 1015.19 1015.35 1015.66 1016.09 1016.62 1017.22
1014.40 1014.67 1015.03 1015.44 1015.82 1016.15 1016.40 1016.56 1016.65 1016.72 1016.81 1016.96 1017.19 1017.52 1017.92 1018.36 1018.80 1019.18 1019.49 1019.70 1019.82 1019.85 1019.83 1019.76 1019.67 1019.54 1019.38 1019.17 1018.90 1018.55 1018.12 1017.65 1017.16 1016.69 1016.29 1016.00 1015.85 1015.86 1016.01 1016.31 1016.73 1017.24 1017.81
1014.23 1014.48 1014.83 1015.22 1015.60 1015.93 1016.19 1016.36 1016.47 1016.55 1016.65 1016.80 1017.03 1017.34 1017.72 1018.14 1018.56 1018.94 1019.26 1019.49 1019.65 1019.75 1019.79 1019.80 1019.79 1019.76 1019.68 1019.56 1019.36 1019.09 1018.74 1018.34 1017.91 1017.49 1017.14 1016.88 1016.75 1016.76 1016.90 1017.18 1017.56 1018.03 1018.55
1014.21 1014.45 1014.78 1015.14 1015.51 1015.83 1016.08 1016.26 1016.37 1016.46 1016.55 1016.69 1016.90 1017.17 1017.50 1017.87 1018.24 1018.59 1018.89 1019.13 1019.31 1019.46 1019.57 1019.67 1019.75 1019.82 1019.85 1019.84 1019.75 1019.59 1019.34 1019.04 1018.70 1018.37 1018.08 1017.87 1017.76 1017.78 1017.91 1018.16 1018.49 1018.90 1019.34
1014.41 1014.63 1014.93 1015.26 1015.60 1015.89 1016.12 1016.28 1016.39 1016.47 1016.55 1016.67 1016.83 1017.06 1017.33 1017.63 1017.94 1018.23 1018.49 1018.71 1018.91 1019.08 1019.25 1019.42 1019.59 1019.76 1019.91 1020.01 1020.04 1020.00 1019.88 1019.70 1019.46 1019.23 1019.01 1018.86 1018.78 1018.81 1018.92 1019.13 1019.41 1019.74 1020.10
1014.85 1015.05 1015.32 1015.61 1015.89 1016.14 1016.33 1016.46 1016.55 1016.61 1016.67 1016.76 1016.89 1017.07 1017.28 1017.51 1017.74 1017.96 1018.17 1018.36 1018.54 1018.72 1018.92 1019.14 1019.39 1019.64 1019.88 1020.08 1020.23 1020.31 1020.31 1020.24 1020.12 1019.97 1019.84 1019.74 1019.70 1019.72 1019.82 1019.99 1020.20 1020.46 1020.73
1015.52 1015.70 1015.93 1016.16 1016.38 1016.57 1016.71 1016.80 1016.86 1016.90 1016.94 1017.01 1017.11 1017.24 1017.39 1017.56 1017.72 1017.88 1018.02 1018.16 1018.30 1018.47 1018.67 1018.91 1019.19 1019.50 1019.80 1020.09 1020.33 1020.50 1020.60 1020.63 1020.61 1020.55 1020.48 1020.43 1020.42 1020.44 1020.52 1020.64 1020.79 1020.97 1021.17
1016.36 1016.52 1016.70 1016.88 1017.03 1017.15 1017.23 1017.28 1017.30 1017.31 1017.34 1017.39 1017.46 1017.56 1017.68 1017.79 1017.89 1017.98 1018.06 1018.14 1018.23 1018.36 1018.54 1018.77 1019.05 1019.37 1019.71 1020.04 1020.33 1020.58 1020.75 1020.86 1020.91 1020.92 1020.91 1020.90 1020.90 1020.92 1020.96 1021.04 1021.14 1021.26 1021.39
1017.29 1017.43 1017.57 1017.68 1017.77 1017.83 1017.85 1017.84 1017.83 1017.82 1017.83 1017.87 1017.93 1018.01 1018.09 1018.17 1018.22 1018.25 1018.27 1018.28 1018.31 1018.38 1018.50 1018.69 1018.95 1019.26 1019.59 1019.94 1020.26 1020.55 1020.78 1020.94 1021.05 1021.10 1021.13 1021.13 1021.13 1021.14 1021.16 1021.19 1021.24 1021.30 1021.38
1018.22 1018.34 1018.44 1018.51 1018.54 1018.54 1018.50 1018.45 1018.40 1018.37 1018.37 1018.40 1018.45 1018.52 1018.58 1018.62 1018.63 1018.60 1018.55 1018.49 1018.45 1018.45 1018.51 1018.65 1018.86 1019.13 1019.45 1019.79 1020.13 1020.43 1020.69 1020.89 1021.03 1021.11 1021.16 1021.17 1021.16 1021.15 1021.13 1021.12 1021.12 1021.13 1021.17
1019.05 1019.16 1019.24 1019.28 1019.27 1019.22 1019.14 1019.06 1018.98 1018.92 1018.91 1018.92 1018.96 1019.01 1019.05 1019.05 1019.01 1018.93 1018.82 1018.70 1018.59 1018.52 1018.51 1018.59 1018.74 1018.98 1019.27 1019.60 1019.93 1020.24 1020.52 1020.74 1020.89 1021.00 1021.05 1021.06 1021.03 1020.99 1020.93 1020.88 1020.83 1020.80 1020.80
1019.75 1019.86 1019.93 1019.95 1019.92 1019.84 1019.74 1019.62 1019.51 1019.44 1019.40 1019.39 1019.41 1019.43 1019.43 1019.39 1019.31 1019.18 1019.00 1018.82 1018.64 1018.51 1018.45 1018.47 1018.58 1018.79 1019.05 1019.37 1019.70 1020.02 1020.30 1020.53 1020.70 1020.81 1020.85 1020.85 1020.80 1020.73 1020.63 1020.53 1020.44 1020.37 1020.34
1020.30 1020.42 1020.50 1020.52 1020.48 1020.39 1020.26 1020.12 1019.99 1019.89 1019.82 1019.78 1019.76 1019.74 1019.70 1019.61 1019.48 1019.29 1019.07 1018.83 1018.60 1018.42 1018.31 1018.30 1018.39 1018.57 1018.83 1019.14 1019.47 1019.79 1020.08 1020.32 1020.49 1020.59 1020.63 1020.60 1020.53 1020.42 1020.29 1020.15 1020.01 1019.90 1019.83
1020.73 1020.87 1020.96 1020.99 1020.95 1020.85 1020.71 1020.55 1020.40 1020.26 1020.16 1020.08 1020.02 1019.95 1019.86 1019.72 1019.54 1019.30 1019.03 1018.75 1018.49 1018.29 1018.16 1018.13 1018.20 1018.38 1018.64 1018.95 1019.28 1019.61 1019.90 1020.14 1020.30 1020.39 1020.41 1020.36 1020.25 1020.11 1019.94 1019.76 1019.59 1019.44 1019.32
1021.09 1021.25 1021.35 1021.39 1021.35 1021.25 1021.10 1020.93 1020.75 1020.58 1020.44 1020.32 1020.21 1020.09 1019.94 1019.76 1019.54 1019.27 1018.97 1018.67 1018.40 1018.18 1018.05 1018.03 1018.11 1018.28 1018.54 1018.85 1019.18 1019.50 1019.78 1020.01 1020.15 1020.22 1020.21 1020.13 1019.99 1019.81 1019.61 1019.39 1019.19 1019.00 1018.84
1021.43 1021.59 1021.70 1021.73 1021.70 1021.59 1021.43 1021.24 1021.04 1020.85 1020.67 1020.51 1020.36 1020.20 1020.02 1019.80 1019.55 1019.26 1018.96 1018.66 1018.40 1018.20 1018.08 1018.06 1018.15 1018.33 1018.58 1018.88 1019.20 1019.49 1019.74 1019.93 1020.04 1020.07 1020.02 1019.90 1019.74 1019.53 1019.29 1019.05 1018.81 1018.59 1018.39
Thickness
5710 5710 5709 5709 5708 5707 5707 5707 5707 5707 5707 5707 5707 5707 5706 5706 5706 5705 5705 5705 5705 5705 5704 5704 5705 5704 5704 5703 5703 5703 5702 5702 5701 5700 5700 5699 5698 5697 5697 5696 5695 5694 5693
5705 5704 5704 5703 5703 5702 5702 5702 5702 5702 5702 5702 5701 5701 5701 5701 5700 5700 5699 5700 5699 5699 5699 5699 5700 5700 5699 5699 5699 5699 5699 5699 5698 5697 5696 5695 5695 5695 5694 5693 5692 5691 5690
5700 5699 5698 5698 5697 5697 5697 5696 5696 5696 5696 5696 5695 5695 5696 5695 5695 5695 5694 5694 5694 5694 5694 5694 5694 5694 5694 5694 5695 5695 5695 5694 5694 5693 5692 5692 5691 5691 5690 5689 5688 5687 5686
5695 5693 5692 5691 5691 5691 5691 5690 5689 5688 5688 5688 5688 5689 5689 5689 5689 5689 5689 5688 5688 5688 5689 5689 5688 5688 5689 5689 5689 5690 5690 5690 5689 5689 5688 5688 5687 5687 5686 5685 5684 5683 5682
5689 5687 5686 5685 5685 5684 5684 5684 5682 5681 5680 5681 5682 5682 5682 5682 5682 5682 5682 5682 5682 5682 5682 5682 5682 5682 5683 5684 5684 5684 5684 5684 5684 5684 5684 5684 5683 5682 5681 5680 5680 5678 5677
5682 5681 5679 5679 5678 5677 5676 5676 5675 5675 5674 5673 5674 5674 5674 5674 5674 5674 5674 5674 5674 5675 5675 5676 5676 5676 5676 5677 5678 5678 5678 5679 5679 5678 5678 5678 5678 5678 5677 5676 5674 5673 5672
5674 5673 5672 5671 5671 5669 5668 5668 5667 5666 5665 5666 5664 5662 5663 5665 5665 5666 5666 5666 5666 5666 5667 5668 5668 5669 5669 5670 5670 5671 5672 5672 5672 5672 5672 5672 5672 5672 5671 5670 5669 5668 5666
5667 5666 5664 5663 5662 5661 5659 5659 5658 5657 5656 5657 5654 5651 5649 5651 5654 5656 5656 5657 5656 5658 5658 5659 5660 5661 5662 5662 5663 5664 5665 5665 5665 5665 5665 5666 5665 5665 5665 5664 5663 5662 5661
5659 5658 5656 5655 5654 5652 5650 5650 5649 5648 5646 5647 5647 5644 5639 5638 5639 5643 5645 5647 5647 5648 5648 5650 5651 5653 5654 5654 5656 5656 5657 5657 5658 5658 5658 5659 5659 5659 5659 5658 5657 5656 5655
5651 5650 5648 5647 5646 5645 5643 5642 5642 5640 5639 5637 5638 5638 5636 5634 5630 5630 5633 5635 5637 5639 5640 5641 5642 5644 5645 5646 5647 5648 5648 5649 5649 5650 5650 5650 5651 5651 5651 5651 5651 5650 5649
5641 5640 5640 5638 5638 5636 5635 5634 5634 5633 5632 5631 5630 5629 5628 5626 5625 5622 5621 5623 5626 5628 5631 5632 5633 5635 5636 5637 5638 5639 5639 5640 5640 5641 5641 5642 5643 5643 5644 5643 5643 5643 5642
5632 5631 5631 5630 5629 5628 5627 5627 5626 5626 5625 5624 5623 5622 5620 5618 5617 5615 5613 5614 5615 5618 5621 5623 5625 5626 5627 5628 5629 5630 5631 5631 5631 5632 5633 5633 5634 5634 5635 5635 5635 5635 5634
5622 5621 5622 5621 5621 5620 5620 5620 5619 5618 5618 5617 5616 5615 5614 5612 5612 5610 5607 5606 5606 5607 5610 5613 5615 5617 5618 5619 5620 5621 5622 5622 5622 5624 5624 5624 5625 5625 5626 5626 5626 5627 5627
5614 5613 5613 5613 5613 5613 5612 5612 5611 5611 5610 5609 5609 5608 5606 5606 5605 5603 5601 5599 5597 5597 5599 5602 5605 5607 5608 5610 5611 5612 5612 5613 5614 5615 5615 5615 5616 5617 5617 5618 5618 5618 5619
5607 5606 5605 5604 5604 5604 5604 5604 5603 5602 5602 5601 5600 5600 5599 5598 5597 5596 5595 5594 5591 5589 5589 5592 5594 5597 5598 5600 5602 5603 5603 5604 5605 5606 5606 5607 5608 5609 5610 5610 5611 5611 5611
5601 5599 5598 5597 5596 5596 5595 5595 5594 5594 5593 5593 5592 5591 5591 5589 5588 5588 5587 5587 5586 5584 5583 5583 5585 5587 5590 5591 5592 5593 5595 5596 5597 5598 5599 5600 5600 5601 5602 5602 5603 5604 5603
5594 5593 5591 5590 5589 5588 5587 5586 5586 5586 5585 5584 5584 5583 5582 5581 5580 5579 5579 5579 5578 5578 5577 5576 5578 5580 5581 5582 5584 5585 5587 5588 5590 5591 5592 5593 5593 5594 5594 5595 5596 5596 5595
5588 5587 5585 5584 5582 5581 5580 5579 5579 5578 5577 5576 5576 5575 5574 5574 5572 5572 5571 5571 5571 5572 5571 5570 5570 5572 5574 5576 5577 5578 5580 5582 5583 5584 5585 5586 5587 5587 5588 5588 5588 5588 5588
5583 5581 5580 5577 5576 5575 5574 5573 5572 5571 5570 5570 5569 5568 5567 5566 5565 5564 5564 5564 5564 5565 5565 5564 5564 5566 5567 5569 5570 5572 5574 5575 5576 5578 5579 5580 5581 5581 5582 5582 5582 5582 5582
5577 5575 5574 5572 5570 5569 5568 5567 5566 5565 5565 5564 5563 5563 5562 5561 5559 5559 5559 5559 5559 5558 5559 5559 5559 5560 5561 5563 5563 5564 5566 5567 5569 5572 5573 5574 5575 5575 5576 5576 5577 5577 5577
5573 5571 5569 5567 5566 5565 5564 5563 5562 5561 5560 5559 5558 5558 5557 5557 5556 5556 5555 5554 5554 5553 5553 5553 5553 5554 5555 5556 5557 5559 5560 5561 5563 5565 5566 5567 5569 5569 5570 5571 5572 5572 5572
5569 5567 5565 5563 5562 5562 5561 5560 5559 5557 5556 5555 5554 5553 5553 5552 5552 5552 5552 5552 5551 5550 5549 5549 5550 5551 5552 5553 5554 5555 5555 5555 5556 5560 5560 5562 5564 5564 5566 5567 5568 5569 5569
5565 5563 5562 5561 5560 5559 5559 5558 5557 5555 5553 5551 5550 5550 5550 5549 5549 5548 5549 5549 5549 5549 5549 5548 5549 5551 5552 5553 5553 5553 5552 5552 5553 5557 5557 5557 5559 5560 5563 5564 5566 5566 5566
5563 5561 5560 5559 5558 5558 5557 5556 5555 5553 5551 5550 5549 5548 5547 5546 5546 5545 5545 5546 5547 5548 5549 5550 5550 5552 5554 5554 5553 5553 5552 5551 5552 5555 5555 5554 5556 5557 5561 5562 5564 5564 5564
5562 5561 5560 5558 5557 5556 5556 5554 5553 5551 5550 5549 5548 5547 5547 5546 5545 5544 5544 5544 5545 5547 5549 5550 5552 5553 5554 5555 5553 5551 5550 5550 5549 5551 5553 5553 5554 5555 5558 5560 5562 5562 5562
5561 5561 5559 5558 5557 5556 5556 5555 5553 5551 5549 5548 5547 5547 5546 5545 5545 5545 5544 5543 5543 5545 5547 5550 5552 5554 5555 5555 5555 5553 5552 5550 5549 5549 5553 5552 5553 5552 5553 5558 5560 5560 5560